Change the Weather History Date:

Friday, May 3, 2013

  Actual Average Record
Temperature  
Mean Temperature 74 °F -  
Max Temperature 80 °F 82 °F 86 °F (2003)
Min Temperature 67 °F 72 °F 64 °F (2011)
Cooling Degree Days 8    
Growing Degree Days 24 (Base 50)    
Moisture  
Dew Point 71 °F    
Average Humidity 87    
Maximum Humidity 100    
Minimum Humidity 74    
Precipitation  
Precipitation 0.24 in - - ()
Sea Level Pressure  
Sea Level Pressure 29.75 in    
Wind  
Wind Speed 8 mph ()    
Max Wind Speed 17 mph    
Max Gust Speed -    
Visibility 6.5 miles    
Events Rain , Tornado    
Averages and records for this station are not official NWS values.
T = Trace of Precipitation, MM = Missing Value Source: Averaged Metar Reports

Daily Weather History Graph

Daily Weather History Graph

Search for Another Location

Airport or City:

Trip Planner

Search our weather history database for the weather conditions in past years. The results will help you decide how hot, cold, wet, or windy it might be!

Date:

Astronomy

May. 03, 2013 Rise Set
Actual Time 6:35 AM EDT 7:48 PM EDT
Civil Twilight 6:10 AM EDT 8:12 PM EDT
Nautical Twilight 5:41 AM EDT 8:42 PM EDT
Astronomical Twilight 5:11 AM EDT 9:12 PM EDT
Moon 2:22 AM EDT (5/3) 2:14 PM EDT (5/3)
Length of Visible Light 14h 02m
Length of Day
13h 13m
Last Quarter, 37% of the Moon is Illuminated
May 3
Last Quarter
May 9
New
May 18
First Quarter
May 25
Full
May 31
Last Quarter

Hourly Weather History & Observations

Time (EDT) Temp. Heat Index Dew Point Humidity Pressure Visibility Wind Dir Wind Speed Gust Speed Precip Events Conditions
7:00 AM 71.6 °F - 71.6 °F 100% 29.75 in 5.0 mi SSE 8.1 mph - N/A Rain Light Rain
8:00 AM 74 °F - 72 °F 91% 29.75 in 7 mi South 13.8 mph - - Rain Light Rain
8:00 AM 75.2 °F - 71.6 °F 89% 29.75 in 5.6 mi South 13.8 mph - N/A Rain Light Rain
9:00 AM 73.4 °F - 73.4 °F 100% 29.76 in 5.0 mi South 17.3 mph - N/A Rain Rain
10:00 AM 75.2 °F - 73.4 °F 94% 29.77 in 6.2 mi SSW 11.5 mph - N/A Rain Rain Showers
11:00 AM 79 °F - 74 °F 80% 29.78 in 12 mi South 3.5 mph - - Rain Light Rain Showers
11:00 AM 78.8 °F - 73.4 °F 83% 29.78 in 6.2 mi South 15.0 mph - N/A   Mostly Cloudy
12:00 PM 80.6 °F 84.6 °F 71.6 °F 74% 29.77 in 6.2 mi South 15.0 mph - N/A   Scattered Clouds
1:00 PM 80.6 °F 85.4 °F 73.4 °F 79% 29.77 in 6.2 mi South 15.0 mph - N/A Tornado Funnel Cloud
1:07 PM 78.8 °F - 71.6 °F 78% 29.77 in 6.2 mi SW 10.4 mph - N/A Rain Rain Showers
2:00 PM 74 °F - 71 °F 88% 29.77 in 9 mi West 5.8 mph - - Rain Heavy Rain Showers
2:00 PM 75.2 °F - 71.6 °F 89% 29.77 in 6.2 mi West 5.8 mph - N/A Rain Rain Showers
3:00 PM 73.4 °F - 71.6 °F 94% 29.75 in 6.2 mi South 8.1 mph - N/A Rain Rain
4:00 PM 71.6 °F - 69.8 °F 94% 29.74 in 6.2 mi Calm Calm - N/A Rain Light Rain
4:01 PM 71.6 °F - 69.8 °F 94% 29.74 in 6.2 mi Calm Calm - N/A Rain Light Rain
4:26 PM 71.6 °F - 66.2 °F 83% 29.73 in - South 11.5 mph - N/A Rain Light Rain
5:00 PM 73.4 °F - 69.8 °F 88% 29.73 in 6.2 mi SW 3.5 mph - N/A   Scattered Clouds
6:00 PM 77.0 °F - 71.6 °F 83% 29.71 in 6.2 mi SW 5.8 mph - N/A   Scattered Clouds
7:00 PM 77.0 °F - 69.8 °F 78% 29.72 in 6.2 mi SSE 3.5 mph - N/A   Scattered Clouds
8:00 PM 75.2 °F - 69.8 °F 83% 29.73 in 6.2 mi SE 2.3 mph - N/A   Mostly Cloudy
9:00 PM 71.6 °F - 69.8 °F 94% 29.74 in 6.2 mi ESE 3.5 mph - N/A   Scattered Clouds